Location: Newark
(43.6583°N, 1.6617°E)
Time: 22:33:49
(UTC+00:00)

Transit 4A - Pass Details

Date: 01 September 2019
Orbit: 865 x 980 km, 66.8° (Epoch: 19 September)

Event Time Altitude Azimuth Distance (km) Brightness Sun altitude
Rises 00:43:12 0° 328° (NNW) 3,624 11.5 -36.7°
Reaches altitude 10° 00:45:46 10° 328° (NNW) 2,660 10.7 -36.6°
Enters shadow 00:48:47 31° 328° (NNW) 1,588 9.3 -36.4°
Maximum altitude 00:51:58 88° 242° (WSW) 924 - -36.2°
Drops below altitude 10° 00:57:57 10° 152° (SSE) 2,563 - -35.9°
Sets 01:00:23 0° 152° (SSE) 3,484 - -35.7°
